[[{"header":{"parameterUnit":"m.s-1","parameterCategory":1,"la1":30.2991,"la2":30.254,"lo1":-89.0895,"lo2":-89.0444,"dy":0.0017,"dx":0.0017,"nx":28,"ny":28,"refTime":"2025-03-19T21:00:00:Z","depth":0,"parameterNumber":2,"parameterNumberName":"U-component_of_WINDS"},"data":[0,0,0,0,0,0,0,0,0,0,0,0,0,0,0,0,0,0,0,0,0,0,0,0,0,0,0,0,0,0,0,0,0,0,0,0,0,0,0,0,0,0,0,0,0,0,0,0,0,0,0,0,0,0,0,0,0,0,-1.9069,-1.9068,0,-1.8975,-1.8974,-1.8973,-1.8866,-1.8864,-1.8862,-1.8861,-1.8765,-1.8764,-1.8762,0,0,0,0,0,0,0,0,0,0,0,0,0,-1.9156,-1.9155,-1.9069,-1.9068,-1.9066,-1.8975,-1.8974,-1.8973,-1.8866,-1.8864,-1.8862,-1.886,-1.8765,-1.8764,-1.8762,0,0,0,0,0,0,0,0,0,0,0,0,0,-1.9096,-1.9155,-1.9069,-1.9002,-1.8995,-1.8975,-1.8974,-1.8972,-1.8866,-1.8864,-1.8861,-1.8859,-1.8765,-1.8764,-1.8762,-1.88,0,0,-1.8757,-1.8757,0,0,0,0,0,0,0,0,-1.91,-1.9093,-1.9013,-1.9007,-1.8999,-1.8929,-1.8969,-1.8915,-1.8867,-1.8915,-1.8861,-1.8858,-1.8821,-1.8815,-1.8803,-1.8796,-1.8792,-1.8757,-1.8756,-1.8755,-1.8755,0,0,0,0,0,0,0,-1.9104,-1.9096,-1.9031,-1.9012,-1.9003,-1.8977,-1.8966,-1.8958,-1.8883,-1.8911,-1.8903,-1.8893,-1.8817,-1.8805,-1.88,-1.879,-1.8757,-1.8756,-1.8755,-1.8754,-1.8811,-1.8814,0,0,0,0,0,0,-1.9118,-1.9101,-1.9034,-1.9029,-1.9044,-1.8978,-1.8965,-1.8954,-1.8883,-1.8869,-1.8895,-1.8889,-1.8808,-1.8802,-1.8796,-1.8836,-1.8755,-1.8754,-1.8753,-1.8809,-1.8812,-1.8815,0,0,0,0,0,0,-1.912,-1.9113,-1.9038,-1.9062,-1.9051,-1.8979,-1.8967,-1.8954,-1.8941,-1.8871,-1.8857,-1.8896,-1.8806,-1.8798,-1.88,-1.8831,-1.8753,-1.8752,-1.8806,-1.881,-1.8813,-1.8917,0,0,0,0,0,0,-1.9123,-1.9115,-1.9128,-1.9064,-1.905,-1.9044,-1.8969,-1.8954,-1.8938,-1.8929,-1.8868,-1.8856,-1.8804,-1.8803,-1.8799,-1.8828,-1.875,-1.8803,-1.8808,-1.8812,-1.891,-1.8924,-1.8935,0,0,0,0,0,-1.9127,-1.9161,-1.9129,-1.9122,-1.9065,-1.9046,-1.9038,-1.8978,-1.8941,-1.8954,-1.891,-1.8858,-1.8829,-1.8804,-1.8798,-1.8827,-1.88,-1.8806,-1.8812,-1.8905,-1.8921,-1.8935,0,0,0,0,0,0,-1.923,-1.9151,-1.9115,-1.9129,-1.9095,-1.9028,-1.9042,-1.8997,-1.8972,-1.8964,-1.889,-1.8878,-1.8889,-1.8858,-1.8832,-1.8861,-1.8807,-1.8812,-1.888,-1.8895,-1.8907,-1.8914,-1.8749,0,0,0,0,0,-1.9254,-1.9245,-1.9177,-1.9196,-1.9181,-1.9115,-1.9105,-1.9061,-1.9023,-1.9008,-1.8963,-1.8929,-1.8912,-1.8902,-1.8882,-1.8906,-1.8892,-1.8923,-1.8936,-1.8946,-1.8951,-1.8962,-1.8975,-1.8833,-1.8833,-1.8833,0,0,-1.9304,-1.926,-1.9259,-1.9215,-1.9184,-1.9177,-1.9104,-1.9099,-1.9093,-1.9007,-1.9006,-1.8973,-1.8929,-1.8943,-1.8947,-1.8918,-1.8987,-1.8953,-1.8962,-1.8961,-1.8969,-1.8983,-1.8995,-1.8837,-1.8836,-1.8835,0,0,-1.9391,-1.9357,-1.9369,-1.934,-1.9294,-1.9251,-1.9254,-1.9194,-1.9169,-1.9167,-1.9104,-1.9096,-1.9068,-1.904,-1.9022,-1.9102,-1.9053,-1.9098,-1.9162,-1.9174,-1.9185,-1.9195,-1.9223,-1.9234,-1.9103,-1.9103,-1.9103,0,-1.9459,-1.9445,-1.9381,-1.9381,-1.9364,-1.9288,-1.93,-1.9275,-1.9225,-1.9215,-1.9184,-1.9149,-1.9114,-1.912,-1.914,-1.9128,-1.913,-1.9103,-1.9189,-1.9198,-1.9206,-1.9232,-1.9243,-1.9109,-1.9108,-1.9107,-1.9107,0,-1.9531,-1.9523,-1.9539,-1.9493,-1.9478,-1.9484,-1.9422,-1.9415,-1.9374,-1.9334,-1.9334,-1.929,-1.9261,-1.926,-1.9219,-1.9261,-1.9244,-1.9202,-1.9146,-1.9226,-1.925,-1.9259,-1.9117,-1.9115,-1.9113,-1.9112,0,0,-1.9678,-1.9599,-1.9606,-1.9585,-1.953,-1.9522,-1.9526,-1.9498,-1.9493,-1.9462,-1.9463,-1.9443,-1.9404,-1.9384,-1.934,-1.9351,-1.9418,-1.9307,-1.9305,-1.9329,-1.9462,-1.9493,-1.9506,-1.9386,-1.9388,-1.9389,-1.9465,0,-1.9755,-1.9756,-1.9699,-1.9716,-1.9708,-1.9637,-1.964,-1.9607,-1.9571,-1.9559,-1.9519,-1.9506,-1.9455,-1.9443,-1.9451,-1.9408,-1.9443,-1.9402,-1.9386,-1.9386,-1.9398,-1.9518,-1.9551,-1.9625,-1.9474,-1.9476,-1.9477,0,-1.9844,-1.9819,-1.9835,-1.9781,-1.9775,-1.9779,-1.975,-1.974,-1.9702,-1.9675,-1.9654,-1.9604,-1.9604,-1.9553,-1.9553,-1.9526,-1.9517,-1.9495,-1.9497,-1.9492,-1.9436,-1.9516,-1.9647,-1.9659,-1.9491,-1.949,-1.9489,0,-1.9949,-1.992,-1.9926,-1.991,-1.9847,-1.9852,-1.9826,-1.9785,-1.9773,-1.9748,-1.9739,-1.9714,-1.9701,-1.9683,-1.9629,-1.9596,-1.9635,-1.9579,-1.9612,-1.9614,-1.9622,-1.9622,-1.9753,-1.9618,-1.9618,-1.9618,-1.9618,0,-2.004,-2.0053,-1.9972,-1.9976,-1.9989,-1.9925,-1.9939,-1.9906,-1.9872,-1.9868,-1.9805,-1.9804,-1.9732,-1.9722,-1.968,-1.9687,-1.9681,-1.9659,-1.9648,-1.9664,-1.9667,-1.9656,-1.9649,-1.9621,-1.962,-1.962,-1.9619,0,-2.0159,-2.0106,-2.0108,-2.0049,-2.0034,-2.0046,-1.9996,-1.9997,-1.9958,-1.9955,-1.995,-1.9889,-1.9875,-1.9819,-1.9791,-1.9763,-1.9783,-1.9761,-1.9796,-1.9788,-1.9825,-1.9823,-1.9953,-1.9967,-1.9824,-1.9826,-1.9827,0,-2.022,-2.0228,-2.0171,-2.0164,-2.0141,-2.0131,-2.0119,-2.0057,-2.0046,-2.0005,-2.0012,-1.9993,-1.9974,-1.9955,-1.9908,-1.9887,-1.9863,-1.991,-1.9859,-1.9876,-1.9863,-1.9863,-1.9864,-1.9921,-1.9923,-1.9924,-1.9926,0,-2.0334,-2.0308,-2.0292,-2.0268,-2.0254,-2.0232,-2.0206,-2.0205,-2.0136,-2.0128,-2.0113,-2.0098,-2.0071,-2.0053,-2.0025,-1.9998,-1.9951,-1.9943,-1.9949,-1.9966,-1.9986,-1.9975,-1.9825,-1.9939,-1.9938,-1.9937,-1.9936,-1.9936,-2.0425,-2.0429,-2.039,-2.0375,-2.035,-2.0327,-2.0326,-2.0288,-2.0274,-2.0247,-2.0212,-2.0202,-2.0165,-2.0122,-2.01,-2.0092,-2.0065,-2.0075,-2.0077,-2.008,-2.0089,-1.9988,-2.0086,-2.0086,-2.0085,-2.0085,-2.0085,0,-2.0535,-2.0507,-2.0494,-2.046,-2.0449,-2.0407,-2.0377,-2.037,-2.0362,-2.0332,-2.0316,-2.0299,-2.0282,-2.0235,-2.0214,-2.0216,-2.0194,-2.0213,-2.0211,-2.0206,-2.0113,-2.011,-2.0231,-2.0231,-2.0231,-2.0231,-2.0231,-2.0231,-2.0591,-2.0597,-2.0567,-2.056,-2.0531,-2.0521,-2.0508,-2.0487,-2.0463,-2.0448,-2.0434,-2.0403,-2.0367,-2.0343,-2.0326,-2.0312,-2.0307,-2.0333,-2.0313,-2.0227,-2.0212,-2.0199,-2.0195,-2.0333,-2.0333,-2.0406,-2.0407,-2.0407]},{"header":{"parameterUnit":"m.s-1","parameterCategory":1,"la1":30.2991,"la2":30.254,"lo1":-89.0895,"lo2":-89.0444,"dy":0.0017,"dx":0.0017,"nx":28,"ny":28,"refTime":"2025-03-19T21:00:00:Z","depth":0,"parameterNumber":3,"parameterNumberName":"V-component_of_WINDS"},"data":[0,0,0,0,0,0,0,0,0,0,0,0,0,0,0,0,0,0,0,0,0,0,0,0,0,0,0,0,0,0,0,0,0,0,0,0,0,0,0,0,0,0,0,0,0,0,0,0,0,0,0,0,0,0,0,0,0,0,2.2496,2.2496,0,2.2492,2.2492,2.2492,2.2527,2.2528,2.2528,2.2529,2.2521,2.252,2.2518,0,0,0,0,0,0,0,0,0,0,0,0,0,2.2531,2.253,2.2496,2.2496,2.2496,2.2492,2.2492,2.2492,2.2526,2.2528,2.2529,2.253,2.2521,2.252,2.2518,0,0,0,0,0,0,0,0,0,0,0,0,0,2.252,2.253,2.2496,2.2513,2.2515,2.2492,2.2492,2.2492,2.2526,2.2528,2.2529,2.253,2.2522,2.252,2.2518,2.2478,0,0,2.2513,2.2512,0,0,0,0,0,0,0,0,2.2521,2.2519,2.2511,2.2512,2.2514,2.2512,2.2501,2.2487,2.2526,2.2522,2.2529,2.2531,2.2516,2.2515,2.2511,2.2478,2.2478,2.2513,2.2512,2.2511,2.2511,0,0,0,0,0,0,0,2.2522,2.2519,2.2495,2.2511,2.2512,2.252,2.252,2.2499,2.2511,2.2522,2.2525,2.2524,2.2517,2.2512,2.2511,2.2477,2.2513,2.2511,2.251,2.251,2.2412,2.241,0,0,0,0,0,0,2.2521,2.252,2.2495,2.2495,2.2521,2.2518,2.2518,2.2511,2.2511,2.2512,2.2523,2.2525,2.2515,2.2513,2.2511,2.2464,2.2511,2.2509,2.2508,2.2413,2.2412,2.241,0,0,0,0,0,0,2.2521,2.2518,2.2495,2.2508,2.2506,2.2516,2.2507,2.251,2.2505,2.2511,2.2513,2.2516,2.2516,2.2513,2.2487,2.2464,2.2509,2.2507,2.2415,2.2413,2.2411,2.237,0,0,0,0,0,0,2.2522,2.2518,2.2504,2.2507,2.2505,2.2472,2.2506,2.2509,2.2503,2.2506,2.2505,2.2507,2.2517,2.2489,2.2485,2.2463,2.2506,2.2417,2.2414,2.2411,2.2374,2.2367,2.2361,0,0,0,0,0,2.2523,2.2491,2.2503,2.25,2.2487,2.247,2.2469,2.2482,2.2501,2.2486,2.249,2.2507,2.2468,2.2486,2.2482,2.2459,2.2419,2.2415,2.2412,2.2377,2.2368,2.2361,0,0,0,0,0,0,2.2483,2.2492,2.2505,2.2474,2.2471,2.2476,2.2458,2.2473,2.2464,2.2467,2.2483,2.2483,2.2453,2.2453,2.2474,2.242,2.2446,2.2442,2.2421,2.2413,2.2407,2.2407,2.2504,0,0,0,0,0,2.2471,2.2458,2.2466,2.2438,2.2436,2.2447,2.244,2.2451,2.2448,2.2447,2.2449,2.2445,2.2432,2.2423,2.2411,2.2375,2.2374,2.2357,2.235,2.2345,2.2341,2.2321,2.2313,2.2398,2.2398,2.2398,0,0,2.2445,2.2449,2.2439,2.243,2.2429,2.2414,2.2446,2.2428,2.2417,2.2444,2.2419,2.2421,2.2417,2.2386,2.2372,2.2385,2.2317,2.2341,2.2336,2.2335,2.2317,2.2309,2.2301,2.2396,2.2396,2.2397,0,0,2.239,2.2392,2.2369,2.2368,2.2367,2.2375,2.2369,2.2372,2.2375,2.2351,2.2371,2.2357,2.2334,2.2331,2.2326,2.2272,2.2286,2.2267,2.2234,2.2215,2.2208,2.2202,2.2182,2.2175,2.2263,2.2263,2.2263,0,2.2358,2.2337,2.2354,2.2336,2.2331,2.2357,2.2333,2.2331,2.2325,2.2321,2.2336,2.2309,2.2308,2.2276,2.2263,2.2258,2.2252,2.2267,2.2208,2.2202,2.2197,2.2178,2.217,2.2261,2.2261,2.2261,2.2261,0,2.2297,2.2282,2.2263,2.2259,2.2253,2.2231,2.2244,2.2235,2.2247,2.2253,2.2228,2.2228,2.2217,2.2211,2.2221,2.218,2.2188,2.2205,2.2232,2.2186,2.2168,2.2161,2.2257,2.2258,2.2259,2.2259,0,0,2.2215,2.2222,2.2215,2.2214,2.2215,2.2204,2.2184,2.2175,2.2166,2.2162,2.2145,2.2126,2.2142,2.2137,2.2147,2.213,2.2087,2.215,2.215,2.2137,2.2041,2.2027,2.2019,2.2097,2.2096,2.2095,2.2041,0,2.2161,2.2128,2.2144,2.2108,2.2095,2.212,2.2102,2.2101,2.2106,2.2095,2.21,2.2086,2.2109,2.2106,2.2091,2.2095,2.2067,2.21,2.208,2.2079,2.2079,2.2009,2.1995,2.1944,2.2034,2.2033,2.2032,0,2.2093,2.2088,2.2052,2.2057,2.2052,2.2036,2.2029,2.2018,2.2017,2.2022,2.2017,2.2031,2.2011,2.2039,2.201,2.2032,2.2025,2.2026,2.2024,2.2022,2.2052,2.2004,2.1928,2.192,2.2022,2.2023,2.2023,0,2.2036,2.202,2.1997,2.1995,2.2,2.1988,2.199,2.1991,2.1984,2.1978,2.1974,2.1965,2.1959,2.1951,2.1963,2.1982,2.1933,2.1961,2.1935,2.1935,2.1923,2.1923,2.1843,2.192,2.192,2.192,2.192,0,2.1974,2.195,2.1971,2.1957,2.1931,2.1949,2.1923,2.1927,2.1928,2.1914,2.1935,2.1921,2.1937,2.1925,2.1934,2.1909,2.1906,2.1909,2.1911,2.1906,2.1906,2.1901,2.1905,2.1918,2.1919,2.1919,2.1919,0,2.1905,2.1918,2.1894,2.1902,2.1904,2.1884,2.1891,2.1877,2.1885,2.1866,2.1863,2.1874,2.1861,2.1872,2.1858,2.1864,2.1831,2.1839,2.1832,2.1833,2.1807,2.1809,2.172,2.1709,2.1794,2.1793,2.1792,0,2.1864,2.1847,2.1853,2.1846,2.1847,2.1835,2.1829,2.1846,2.1839,2.1837,2.1824,2.1812,2.1804,2.1781,2.1787,2.1777,2.1784,2.1754,2.1782,2.1778,2.1782,2.1783,2.1781,2.1747,2.1746,2.1745,2.1745,0,2.1789,2.1797,2.1788,2.1782,2.1775,2.1771,2.1768,2.1761,2.1779,2.1769,2.1757,2.175,2.1737,2.1725,2.1718,2.1718,2.1733,2.1736,2.1729,2.1724,2.172,2.1721,2.1815,2.1737,2.1738,2.1739,2.1739,2.1739,2.1732,2.1719,2.1721,2.1711,2.1712,2.1709,2.1696,2.1703,2.1693,2.1685,2.1696,2.168,2.168,2.1671,2.167,2.1657,2.1669,2.166,2.1657,2.1654,2.165,2.1723,2.1655,2.1656,2.1656,2.1656,2.1656,0,2.1658,2.1662,2.1652,2.1649,2.1641,2.1659,2.1657,2.1648,2.1635,2.1634,2.1626,2.1611,2.16,2.1606,2.1596,2.1585,2.1592,2.1582,2.1582,2.1582,2.164,2.1646,2.1576,2.1576,2.1576,2.1576,2.1576,2.1576,2.1618,2.1596,2.1604,2.1582,2.1586,2.1571,2.1569,2.1566,2.1566,2.1549,2.154,2.1545,2.1547,2.1537,2.1528,2.153,2.1525,2.1512,2.1516,2.157,2.1578,2.1585,2.1591,2.1511,2.151,2.1459,2.1458,2.1458]}]]